Waarnemingen

Advertentie
Mijn weer
Landivisiau, Frankrijk (7106): temperatuur & dauwpunt: 14.08.2018 22:00:00 - 20.08.2018 22:00:00 (CEST)Landivisiau, Frankrijk (7106): temperatuur 5cm: 14.08.2018 22:00:00 - 20.08.2018 22:00:00 (CEST)Landivisiau, Frankrijk (7106): temperatuur -20cm: 14.08.2018 22:00:00 - 20.08.2018 22:00:00 (CEST)Landivisiau, Frankrijk (7106): windsnelheid & windstoten: 14.08.2018 22:00:00 - 20.08.2018 22:00:00 (CEST)Landivisiau, Frankrijk (7106): windrichting: 14.08.2018 22:00:00 - 20.08.2018 22:00:00 (CEST)Landivisiau, Frankrijk (7106): luchtdruk: 14.08.2018 22:00:00 - 20.08.2018 22:00:00 (CEST)Landivisiau, Frankrijk (7106): zicht: 14.08.2018 22:00:00 - 20.08.2018 22:00:00 (CEST)Landivisiau, Frankrijk (7106): neerslag: 14.08.2018 22:00:00 - 20.08.2018 22:00:00 (CEST)
Datum & Tijd tt [°C] td [°C] tt 5cm [°C] tt -20cm [°C] ff [km/u] ff [kn] fx [km/u] fx [kn] dd ppp [hPa] vv [km] rr [mm]
20.08.2018 22:00:00 - - - - - - - - - - - -
20.08.2018 21:00:00 19,1 17,6 19,1 19,1 8 4 11 6 NW 1022,5 28 0,0
20.08.2018 20:00:00 19,5 17,5 20,2 19,0 8 4 16 9 NNW 1022,5 32 0,0
20.08.2018 19:00:00 20,1 17,9 - - 9 5 18 10 NNW 1022,7 10 0,0
20.08.2018 18:00:00 20,7 17,9 24,4 18,7 9 5 24 13 N 1023,0 43 0,0
20.08.2018 17:00:00 21,5 18,3 25,7 18,6 14 8 22 12 NNW 1023,1 38 0,0
20.08.2018 16:00:00 21,5 18,5 22,5 18,5 13 7 24 13 NW 1023,3 10 0,0
20.08.2018 15:00:00 21,0 18,6 21,9 18,4 15 8 21 11 WNW 1023,2 10 0,0
20.08.2018 14:00:00 20,5 18,6 21,3 18,3 10 5 16 9 NW 1023,4 34 0,0
20.08.2018 13:00:00 20,6 19,1 20,7 18,2 9 5 15 8 W 1023,8 16 0,0
20.08.2018 12:00:00 19,7 19,5 19,6 18,2 8 4 13 7 W 1023,9 9 0,0
20.08.2018 11:00:00 18,8 18,6 19,3 18,1 9 5 13 7 WNW 1024,1 13 0,0
20.08.2018 10:00:00 18,7 18,5 18,6 18,1 8 4 13 7 W 1023,9 2,1 0,0
20.08.2018 09:00:00 18,2 18,0 18,0 18,1 8 4 11 6 W 1023,7 1,6 0,0
20.08.2018 08:00:00 17,9 17,7 17,8 18,1 6 4 11 6 WZW 1023,4 0,8 0,2
20.08.2018 07:00:00 17,8 17,6 17,9 18,1 10 5 15 8 W 1023,1 0,4 0,0
20.08.2018 06:00:00 17,9 17,7 17,9 18,1 10 5 13 7 W 1023,0 0,3 0,0
20.08.2018 05:00:00 18,0 17,8 17,9 18,1 9 5 15 8 W 1023,4 0,3 0,0
20.08.2018 04:00:00 17,9 17,7 17,9 18,1 8 5 11 6 WZW 1023,4 0,2 0,0
20.08.2018 03:00:00 18,0 17,8 18,0 18,1 9 5 13 7 WZW 1023,5 0,2 0,2
20.08.2018 02:00:00 18,0 17,8 18,0 18,1 10 5 15 8 WZW 1023,9 0,4 0,0
20.08.2018 01:00:00 18,0 17,8 18,0 18,1 10 5 15 8 WZW 1024,1 0,3 0,0
20.08.2018 00:00:00 18,0 17,8 18,0 18,1 10 6 18 10 W 1024,2 0,3 0,0
19.08.2018 23:00:00 18,0 17,8 18,0 18,1 12 6 18 10 W 1024,0 0,5 0,0
19.08.2018 22:00:00 18,1 17,8 18,0 18,1 13 7 18 10 W 1024,0 1,7 0,0
19.08.2018 21:00:00 18,2 17,9 18,1 18,0 12 6 22 12 W 1023,9 0,9 0,0
19.08.2018 20:00:00 18,8 18,1 18,7 18,0 14 8 24 13 W 1023,8 2,7 0,0
19.08.2018 19:00:00 20,2 18,0 20,2 17,8 18 10 26 14 W 1023,8 19 0,0
19.08.2018 18:00:00 20,7 18,1 21,6 17,7 17 9 26 14 W 1023,8 19 0,0
19.08.2018 17:00:00 20,6 17,8 21,9 17,6 17 9 29 16 WZW 1023,8 20 0,0
19.08.2018 16:00:00 20,0 17,6 21,1 17,5 22 12 29 16 WZW 1024,1 17 0,0
19.08.2018 15:00:00 19,3 17,3 20,9 17,4 19 10 26 14 WZW 1024,3 8 0,0
19.08.2018 14:00:00 19,1 17,1 20,2 17,3 19 11 28 15 ZW 1024,0 9 0,0
19.08.2018 13:00:00 18,2 17,0 18,5 17,2 18 10 26 14 ZW 1024,2 6 0,0
19.08.2018 12:00:00 17,8 16,0 19,0 17,1 19 10 28 15 WZW 1024,4 17 0,0
19.08.2018 11:00:00 17,9 15,9 18,1 17,1 18 10 29 16 WZW 1023,9 25 0,0
19.08.2018 10:00:00 17,2 15,5 17,9 17,1 22 12 29 16 WZW 1023,7 25 0,0
19.08.2018 09:00:00 16,0 15,4 13,7 17,2 18 10 24 13 ZW 1023,5 16 0,0
19.08.2018 08:00:00 14,2 13,9 13,2 17,2 13 7 21 11 ZW 1023,6 12 0,0
19.08.2018 07:00:00 13,9 13,7 12,6 17,3 15 8 24 13 ZW 1023,4 13 0,0
19.08.2018 06:00:00 13,4 13,2 11,7 17,4 17 9 22 12 ZW 1023,5 9 0,2
19.08.2018 05:00:00 12,9 12,7 11,3 17,5 14 7 18 10 ZZW 1024,0 6 0,0
19.08.2018 04:00:00 12,9 12,6 10,9 17,5 11 6 15 8 ZW 1024,3 4,5 0,0
19.08.2018 03:00:00 13,0 12,7 11,2 17,6 10 5 13 7 ZZW 1024,5 4,1 0,0
19.08.2018 02:00:00 13,3 12,8 11,7 17,7 11 6 15 8 ZZW 1024,5 8 0,0
19.08.2018 01:00:00 13,2 12,6 11,4 17,8 11 6 13 7 ZZW 1024,8 8 0,0
19.08.2018 00:00:00 13,6 12,8 11,5 17,8 10 5 13 7 ZZW 1024,8 12 0,0
18.08.2018 23:00:00 14,2 12,9 12,3 17,9 10 6 15 8 ZW 1025,0 14 0,0
18.08.2018 22:00:00 15,2 13,0 13,6 17,9 11 6 16 9 ZW 1024,9 15 0,0
18.08.2018 21:00:00 17,1 13,2 16,6 17,8 12 7 21 11 ZW 1024,5 18 0,0
18.08.2018 20:00:00 18,0 13,3 18,5 17,8 16 9 24 13 ZW 1024,2 21 0,0
18.08.2018 19:00:00 18,2 12,9 19,1 17,7 15 8 24 13 ZW 1024,3 23 0,0
18.08.2018 18:00:00 18,6 13,5 20,1 17,6 16 9 26 14 ZW 1024,4 20 0,0
18.08.2018 17:00:00 18,4 12,8 20,1 17,5 16 9 26 14 WZW 1024,4 20 0,0
18.08.2018 16:00:00 18,4 12,8 19,7 17,4 19 10 26 14 ZW 1024,8 24 0,0
18.08.2018 15:00:00 18,1 12,8 19,6 17,4 16 9 26 14 WZW 1025,2 21 0,0
18.08.2018 14:00:00 17,9 13,0 19,2 17,3 18 10 26 14 ZW 1025,4 20 0,0
18.08.2018 13:00:00 17,6 12,9 18,5 17,3 16 9 22 12 ZW 1025,5 23 0,0
18.08.2018 12:00:00 17,2 12,7 17,9 17,3 21 11 29 16 WZW 1025,4 18 0,0
18.08.2018 11:00:00 16,3 13,8 16,9 17,3 13 7 18 10 ZZW 1025,5 16 0,0
18.08.2018 10:00:00 15,3 14,2 15,1 17,4 12 6 18 10 ZW 1025,4 16 0,0
18.08.2018 09:00:00 13,4 12,9 12,3 17,4 10 5 13 7 ZZW 1025,3 15 0,0
18.08.2018 08:00:00 12,2 11,9 10,0 17,5 9 5 15 8 ZZW 1025,0 12 0,2
18.08.2018 07:00:00 11,8 11,2 10,4 17,6 10 5 15 8 Z 1024,6 12 0,0
18.08.2018 06:00:00 11,8 11,2 10,4 17,8 11 6 18 10 ZW 1024,4 15 0,0
18.08.2018 05:00:00 12,3 11,5 10,2 17,9 11 6 16 9 ZW 1024,6 18 0,0
18.08.2018 04:00:00 12,1 11,3 10,4 18,0 11 6 15 8 ZZW 1024,9 13 0,0
18.08.2018 03:00:00 12,5 11,6 10,7 18,1 9 5 15 8 ZZW 1025,1 15 0,0
18.08.2018 02:00:00 13,2 11,9 11,4 18,2 10 5 13 7 ZW 1025,6 18 0,0
18.08.2018 01:00:00 13,3 11,7 11,7 18,3 10 5 13 7 ZW 1025,8 18 0,0
18.08.2018 00:00:00 14,1 12,0 11,8 18,3 10 6 13 7 ZW 1025,7 19 0,0
17.08.2018 23:00:00 14,9 11,3 13,7 18,4 10 5 11 6 WZW 1025,6 20 0,0
17.08.2018 22:00:00 15,1 11,1 13,6 18,4 5 3 11 6 W 1025,3 20 0,0
17.08.2018 21:00:00 16,0 11,0 15,4 18,4 8 4 21 11 WNW 1024,9 25 0,0
17.08.2018 20:00:00 16,8 11,1 16,8 18,3 16 9 22 12 NW 1024,4 32 0,0
17.08.2018 19:00:00 17,5 9,6 18,3 18,2 14 8 28 15 WNW 1024,3 28 0,0
17.08.2018 18:00:00 19,0 10,8 19,9 18,0 15 8 26 14 NW 1023,9 48 0,0
17.08.2018 17:00:00 18,9 10,2 19,8 17,9 12 7 31 17 NW 1024,4 27 0,0
17.08.2018 16:00:00 18,1 10,5 19,9 17,8 16 9 28 15 NW 1024,7 20 0,0
17.08.2018 15:00:00 19,4 10,7 21,0 17,6 19 10 28 15 NNW 1024,7 20 0,0
17.08.2018 14:00:00 18,7 9,5 21,1 17,5 16 8 28 15 NW 1024,6 20 0,0
17.08.2018 13:00:00 17,7 10,3 18,6 17,4 18 10 29 16 NW 1024,7 25 0,0
17.08.2018 12:00:00 17,7 10,8 18,0 17,4 13 7 24 13 NW 1024,6 28 0,0
17.08.2018 11:00:00 16,7 11,6 17,2 17,4 10 6 18 10 NW 1024,3 31 0,0
17.08.2018 10:00:00 15,3 12,6 14,5 17,4 7 4 13 7 WNW 1023,7 21 0,0
17.08.2018 09:00:00 13,8 12,5 13,6 17,5 5 3 15 8 W 1023,2 16 0,0
17.08.2018 08:00:00 12,6 11,8 10,7 17,6 8 4 11 6 WZW 1022,7 13 0,0
17.08.2018 07:00:00 12,4 11,5 9,9 17,7 6 3 9 5 W 1022,2 9 0,0
17.08.2018 06:00:00 12,3 11,2 11,2 17,9 8 4 11 6 W 1021,8 6 0,0
17.08.2018 05:00:00 12,4 11,3 11,3 18,0 9 5 11 6 W 1021,7 1,0 0,0
17.08.2018 04:00:00 12,2 11,3 11,2 18,1 9 5 11 6 W 1021,6 8 0,2
17.08.2018 03:00:00 12,3 11,2 11,2 18,2 9 5 11 6 W 1021,4 9 0,0
17.08.2018 02:00:00 12,1 10,8 11,3 18,3 8 4 9 5 W 1021,4 16 0,0
17.08.2018 01:00:00 12,4 11,1 11,7 18,4 8 4 9 5 W 1021,4 19 0,0
17.08.2018 00:00:00 12,5 11,2 11,6 18,5 6 3 11 6 WNW 1020,9 19 0,0
16.08.2018 23:00:00 13,2 11,6 11,7 18,6 8 5 13 7 WNW 1020,4 25 0,0
16.08.2018 22:00:00 13,3 11,4 11,4 18,6 6 4 16 9 NW 1019,8 29 0,0
16.08.2018 21:00:00 15,8 11,6 15,6 18,6 12 7 26 14 NW 1019,1 33 0,0
16.08.2018 20:00:00 15,9 10,9 15,7 18,6 16 9 31 17 NW 1018,8 40 0,0
16.08.2018 19:00:00 17,2 9,4 18,1 18,5 18 10 37 20 NW 1018,5 15 0,0
16.08.2018 18:00:00 18,4 10,0 21,8 18,5 19 10 31 17 NW 1017,9 33 0,0
16.08.2018 17:00:00 18,0 9,9 18,6 18,4 19 10 31 17 NW 1017,9 23 0,0
16.08.2018 16:00:00 17,4 12,3 16,3 18,4 16 9 28 15 NW 1017,7 20 0,0
16.08.2018 15:00:00 16,4 14,1 16,1 18,4 15 8 22 12 NW 1017,6 17 0,0
16.08.2018 14:00:00 15,6 14,6 15,3 18,4 10 5 18 10 NW 1017,4 17 0,0
16.08.2018 13:00:00 15,4 14,3 15,2 18,4 14 8 41 22 NW 1017,3 8 0,2
16.08.2018 12:00:00 18,0 16,7 16,6 18,4 13 7 28 15 WNW 1016,7 27 0,8
16.08.2018 11:00:00 16,8 16,3 16,4 18,4 19 11 29 16 ZW 1016,6 2,1 0,4
16.08.2018 10:00:00 16,5 15,7 16,4 18,5 22 12 35 19 ZW 1016,6 3,3 0,0
16.08.2018 09:00:00 17,1 16,1 16,4 18,5 21 12 29 16 WZW 1016,3 20 0,0
16.08.2018 08:00:00 16,5 16,0 16,1 18,5 16 8 26 14 ZW 1016,5 16 0,0
16.08.2018 07:00:00 16,3 15,8 15,9 18,6 18 10 24 13 ZW 1016,7 15 0,0
16.08.2018 06:00:00 16,1 15,8 15,6 18,7 13 7 18 10 ZZW 1016,7 19 0,0
16.08.2018 05:00:00 16,1 15,8 15,9 18,7 17 9 22 12 ZZW 1017,2 14 0,0
16.08.2018 04:00:00 16,1 15,6 15,8 18,7 16 9 22 12 ZZW 1017,8 20 0,2
16.08.2018 03:00:00 16,3 15,7 16,0 18,8 12 7 24 13 ZW 1018,5 3,2 0,2
16.08.2018 02:00:00 16,5 15,4 16,2 18,9 16 9 24 13 ZZW 1019,0 13 0,0
16.08.2018 01:00:00 16,7 15,2 16,3 18,9 16 9 22 12 ZZW 1019,2 14 0,0
16.08.2018 00:00:00 17,1 15,1 16,9 18,9 14 8 21 11 ZW 1019,4 19 0,0
15.08.2018 23:00:00 17,3 15,3 17,2 18,9 13 7 22 12 ZW 1020,0 33 0,0
15.08.2018 22:00:00 17,5 15,8 17,3 19,0 16 8 22 12 ZW 1020,1 25 0,0
15.08.2018 21:00:00 17,7 15,7 17,5 19,0 16 9 22 12 ZW 1020,0 20 0,0
15.08.2018 20:00:00 18,4 15,6 18,7 18,9 16 9 22 12 WZW 1019,9 34 0,0
15.08.2018 19:00:00 19,2 15,3 19,8 18,9 17 9 24 13 WZW 1020,1 42 0,0
15.08.2018 18:00:00 19,6 16,1 20,5 18,8 17 9 26 14 ZW 1020,5 30 0,0
15.08.2018 17:00:00 19,3 16,0 20,5 18,8 18 10 31 17 ZW 1020,9 32 0,0
15.08.2018 16:00:00 19,5 16,2 20,9 18,7 20 11 31 17 WZW 1021,3 25 0,0
15.08.2018 15:00:00 19,3 16,0 18,9 18,7 20 11 28 15 ZW 1021,8 24 0,0
15.08.2018 14:00:00 18,7 16,5 18,3 18,6 19 11 31 17 WZW 1021,9 16 0,0
15.08.2018 13:00:00 18,0 17,0 17,7 18,6 20 11 29 16 ZW 1022,2 3,8 0,6
15.08.2018 12:00:00 17,7 16,6 17,8 18,6 15 8 26 14 W 1022,3 6 0,0
15.08.2018 11:00:00 17,5 16,9 17,3 18,6 15 8 22 12 WZW 1022,4 4,8 0,2
15.08.2018 10:00:00 17,3 16,7 17,4 18,6 19 11 28 15 WZW 1022,2 3,7 0,0
15.08.2018 09:00:00 16,9 16,6 16,6 18,7 13 7 22 12 ZW 1022,0 9 0,0
15.08.2018 08:00:00 16,7 16,4 16,4 18,7 10 6 16 9 ZW 1022,1 4,2 0,2
15.08.2018 07:00:00 16,7 16,2 16,3 18,8 10 5 18 10 WZW 1021,9 6 0,0
15.08.2018 06:00:00 16,7 16,2 16,4 18,8 12 7 16 9 ZW 1022,1 8 0,0
15.08.2018 05:00:00 16,6 16,0 16,3 18,8 9 5 16 9 ZW 1022,3 7 0,0
15.08.2018 04:00:00 16,7 15,7 16,6 18,9 12 6 18 10 ZW 1022,3 12 0,0
15.08.2018 03:00:00 16,7 15,7 16,4 18,9 13 7 18 10 ZW 1022,7 12 0,0
15.08.2018 02:00:00 16,7 15,6 16,5 19,0 9 5 11 6 ZW 1023,1 14 0,0
15.08.2018 01:00:00 16,7 15,6 16,5 19,0 8 4 11 6 ZW 1023,1 14 0,0
15.08.2018 00:00:00 16,7 15,4 16,5 19,1 8 4 9 5 ZW 1023,3 16 0,0
14.08.2018 23:00:00 16,7 15,7 16,1 19,1 4 2 13 7 WNW 1023,4 13 0,0
14.08.2018 22:00:00 16,6 15,6 15,8 19,1 6 3 16 9 W 1023,2 1,7 0,0

tt = temperatuur
td = dauwpunt
tt 5cm = temperatuur 5cm
tt -20cm = temperatuur -20cm
ff = windsnelheid
fx = windstoten
dd = windrichting
ppp = luchtdruk
vv = zicht
rr = neerslag

Weerstations in de omgeving